CAPE
0 0 0 0 0 0 0 0 0 0 0 0 0 0 0 0 0 0 0 3 16 0 0 0 3 0 0 0 0 4 16 29 21 3 3 0 0 0 0 0 0 0 0
0 0 0 0 0 0 0 0 0 0 0 0 0 0 0 0 0 0 1 4 5 1 1 2 9 13 1 0 0 0 0 0 13 7 0 2 7 0 0 0 0 1 1
0 0 0 0 0 0 0 0 0 0 0 0 0 0 0 0 0 0 0 2 6 2 0 1 4 13 0 0 0 0 0 6 19 22 0 2 3 0 0 0 0 0 0
0 0 0 0 0 0 0 0 0 0 0 0 0 0 0 0 0 0 0 0 0 1 0 0 0 9 6 0 0 0 0 0 2 8 0 0 0 0 0 0 0 0 0
0 0 0 0 0 0 0 0 0 0 0 0 0 0 0 0 2 1 2 9 2 1 1 0 0 0 20 19 14 0 0 0 3 12 4 2 6 0 0 0 0 0 0
0 0 0 0 0 0 0 0 0 0 0 0 0 0 0 1 11 21 23 13 14 14 7 8 1 12 17 34 35 39 33 17 10 26 6 6 15 0 0 0 0 0 0
0 0 0 0 0 0 0 0 0 0 0 0 0 0 0 0 17 21 41 31 34 21 18 24 26 27 30 9 23 34 30 41 30 17 18 5 8 2 2 0 0 0 0
0 0 0 0 0 0 0 0 0 0 0 0 0 0 0 4 22 20 27 19 15 6 3 0 4 1 2 16 7 3 10 9 5 6 20 1 5 0 3 12 0 0 0
0 0 0 0 0 0 0 0 0 0 0 0 2 0 1 1 14 20 29 10 8 0 0 0 1 6 8 29 19 17 19 9 12 10 2 7 6 0 11 0 0 0 0
0 0 0 0 0 0 0 0 0 0 3 5 6 0 3 0 5 17 22 12 12 6 1 0 7 10 23 24 11 11 1 0 4 4 1 0 9 2 21 0 0 0 0
0 0 0 0 0 0 0 0 0 0 2 0 3 1 0 1 0 17 26 18 15 7 1 0 3 24 29 36 53 11 2 1 7 1 1 0 0 3 0 0 0 0 0
0 0 0 0 0 1 0 0 0 0 0 0 0 1 1 0 4 9 23 39 42 23 14 10 0 12 13 14 26 36 56 52 0 0 1 0 0 0 0 0 0 0 0
0 0 0 0 1 0 0 0 0 0 0 0 3 0 0 2 0 9 16 15 20 15 7 4 16 21 23 24 25 24 24 17 0 0 0 1 0 0 0 1 0 0 0
0 0 0 0 1 0 4 3 0 0 0 2 2 3 0 0 1 0 0 0 1 0 1 0 4 13 23 14 7 3 10 2 1 0 0 1 0 0 0 0 0 0 0
0 0 0 1 0 0 2 0 0 0 2 3 3 4 2 0 0 9 22 7 1 3 7 3 2 0 1 1 5 13 0 5 2 2 0 0 0 0 0 0 0 0 0
0 1 0 1 0 0 0 0 1 2 5 7 13 14 8 25 33 53 53 48 47 55 11 1 2 0 3 0 1 1 0 8 1 4 0 0 0 0 0 0 0 0 0
0 0 2 4 0 0 0 0 0 0 1 2 4 8 13 17 37 39 25 24 23 23 6 4 2 0 0 1 3 0 0 0 0 0 0 0 0 0 0 0 0 0 0
0 6 0 0 0 0 0 0 0 0 0 0 0 3 7 18 39 27 27 11 0 1 2 0 0 0 0 0 0 0 0 0 0 0 0 0 0 0 0 0 0 0 0
1 1 0 0 0 1 0 0 0 0 0 0 0 0 2 30 7 14 16 3 3 1 0 0 0 0 0 0 0 0 1 2 0 1 0 0 0 0 0 0 0 0 0
0 1 5 0 0 0 0 0 0 0 0 0 0 0 1 3 0 1 2 2 1 1 0 0 0 0 0 0 0 0 2 2 0 0 0 0 0 0 0 0 0 0 0
0 0 4 0 0 0 0 0 0 0 0 0 0 3 39 2 0 0 1 1 1 0 0 0 0 0 0 0 0 0 3 1 0 0 0 0 0 0 0 0 0 0 0
0 0 0 0 0 0 1 0 0 0 0 0 0 1 14 0 0 0 0 0 0 0 0 0 0 0 0 0 0 0 0 0 0 0 0 0 0 0 0 0 0 0 0
0 0 0 0 0 0 0 0 0 0 0 0 0 0 1 0 0 0 0 0 0 0 0 0 0 0 0 0 0 0 0 0 0 0 0 0 0 0 0 0 0 0 0
0 0 0 0 0 0 0 0 0 0 0 0 0 0 0 0 0 0 0 0 0 0 0 0 0 0 0 0 0 0 0 0 0 0 0 0 0 0 0 0 0 0 0
0 0 0 0 0 0 0 0 0 0 0 0 0 0 0 0 0 0 0 0 0 0 0 0 0 0 0 0 0 0 0 1 0 0 0 0 0 0 0 0 0 0 0
0 0 0 0 0 0 0 0 0 0 0 0 0 0 0 0 0 0 0 0 0 0 0 0 0 0 0 0 0 4 8 7 1 2 0 0 0 0 0 0 0 0 0
CIN
-0 -0 -0 -0 -0 -0 -0 -0 -0 -0 -0 -0 -0 -0 -0 -0 -0 -0 -0 -0 -0 -0 -0 -0 -2 -0 -0 -0 -0 -0 -0 -0 -0 -1 -0 -0 -0 -2 -0 -0 -0 -0 -0
-0 -0 -0 -0 -0 -0 -0 -0 -0 -0 -0 -0 -0 -0 -0 -0 -0 -0 -0 -0 -0 -0 -0 -0 -0 -0 -1 -0 -0 -0 -0 -0 -3 -0 -0 -2 -0 -0 -0 -0 -0 -0 -0
-0 -0 -0 -0 -0 -0 -0 -0 -0 -0 -0 -0 -0 -0 -0 -0 -0 -0 -0 -0 -0 -0 -0 -0 -0 -0 -0 -0 -0 -0 -0 -0 -0 -0 -0 -0 -1 -0 -0 -0 -0 -0 -0
-0 -0 -0 -0 -0 -0 -0 -0 -0 -0 -0 -0 -0 -0 -0 -0 -0 -0 -0 -0 -0 -0 -0 -0 -3 -0 -2 -0 -0 -0 -0 -0 -0 -0 -0 -0 -0 -0 -0 -0 -0 -0 -0
-0 -0 -0 -0 -0 -0 -0 -0 -0 -0 -0 -0 -0 -0 -0 -0 -0 -0 -0 -1 -0 -0 -0 -0 -0 -7 -0 -0 -0 -0 -0 -0 -0 -0 -1 -0 -0 -0 -0 -0 -0 -0 -0
-0 -0 -0 -0 -0 -0 -0 -0 -0 -0 -0 -0 -0 -0 -0 -0 -0 -0 -0 -0 -0 -0 -0 -0 -0 -0 -1 -0 -0 -0 -0 -0 -0 -0 -3 -0 -0 -0 -0 -0 -0 -0 -0
-0 -0 -0 -0 -0 -0 -0 -0 -0 -0 -0 -0 -0 -0 -0 -0 -0 -0 -0 -0 -0 -0 -0 -0 -0 -0 -0 -0 -0 -0 -0 -0 -0 -0 -0 -4 -1 -0 -0 -0 -0 -0 -0
-0 -0 -0 -0 -0 -0 -0 -0 -0 -0 -0 -0 -0 -0 -1 -0 -0 -0 -0 -0 -0 -0 -0 -0 -0 -1 -0 -0 -0 -1 -2 -3 -4 -1 -0 -0 -5 -0 -2 -0 -0 -0 -0
-0 -0 -0 -0 -0 -0 -0 -0 -0 -0 -0 -0 -0 -0 -1 -0 -0 -0 -0 -0 -0 -0 -0 -0 -0 -0 -0 -0 -0 -0 -0 -7 -5 -1 -3 -0 -0 -0 -1 -1 -0 -0 -0
-0 -0 -0 -0 -0 -0 -0 -0 -0 -0 -0 -0 -0 -0 -0 -0 -0 -0 -0 -0 -0 -0 -0 -0 -0 -0 -0 -0 -0 -0 -0 -4 -17 -8 -5 -6 -1 -3 -0 -0 -0 -0 -0
-0 -0 -0 -0 -0 -0 -0 -0 -0 -0 -0 -0 -0 -0 -0 -0 -0 -0 -0 -0 -0 -0 -0 -0 -1 -0 -0 -0 -0 -0 -0 -0 -17 -24 -26 -16 -0 -13 -0 -4 -0 -0 -0
-0 -0 -0 -0 -0 -0 -0 -0 -1 -0 -0 -0 -0 -0 -0 -0 -0 -0 -0 -0 -0 -0 -0 -0 -0 -0 -0 -0 -0 -0 -0 -0 -0 -0 -23 -20 -0 -0 -0 -0 -0 -0 -0
-0 -0 -0 -0 -0 -0 -1 -1 -1 -1 -0 -0 -0 -0 -0 -0 -0 -0 -0 -0 -0 -0 -0 -0 -0 -0 -0 -0 -0 -0 -0 -1 -0 -0 -19 -17 -23 -0 -0 -0 -0 -0 -0
-0 -0 -0 -0 -0 -0 -0 -0 -1 -0 -0 -0 -0 -0 -1 -0 -0 -0 -0 -0 -0 -0 -0 -0 -0 -0 -0 -0 -0 -2 -1 -3 -4 -4 -0 -17 -0 -0 -0 -0 -0 -0 -0
-0 -0 -0 -0 -0 -0 -0 -1 -1 -0 -0 -0 -1 -0 -0 -0 -0 -0 -0 -0 -0 -0 -0 -0 -0 -0 -0 -1 -0 -0 -0 -1 -5 -6 -0 -0 -0 -0 -0 -0 -0 -0 -0
-0 -0 -0 -1 -0 -0 -0 -0 -0 -0 -0 -0 -0 -0 -0 -0 -0 -0 -0 -0 -0 -0 -0 -0 -1 -0 -0 -0 -0 -0 -0 -0 -1 -8 -0 -0 -0 -0 -0 -0 -0 -0 -0
-0 -0 -0 -0 -1 -1 -0 -0 -0 -0 -0 -0 -0 -0 -0 -0 -0 -0 -0 -0 -0 -0 -0 -0 -0 -0 -0 -0 -0 -0 -0 -0 -0 -0 -0 -0 -0 -0 -0 -0 -0 -0 -0
-0 -0 -0 -0 -0 -0 -0 -0 -0 -0 -0 -0 -0 -0 -0 -0 -0 -0 -0 -0 -0 -0 -0 -0 -0 -0 -0 -0 -0 -0 -0 -0 -0 -0 -34 -0 -0 -0 -0 -0 -0 -0 -0
-0 -0 -0 -0 -0 -0 -0 -0 -0 -0 -0 -0 -0 -0 -0 -0 -0 -0 -0 -0 -0 -0 -0 -0 -0 -0 -0 -0 -0 -0 -0 -0 -0 -0 -0 -0 -0 -0 -0 -0 -0 -0 -0
-0 -0 -0 -0 -0 -0 -0 -0 -0 -0 -0 -0 -0 -0 -0 -0 -1 -0 -0 -0 -0 -0 -0 -0 -0 -0 -0 -0 -0 -0 -0 -0 -0 -0 -0 -0 -0 -0 -0 -0 -0 -0 -0
-0 -0 -0 -0 -0 -0 -0 -0 -0 -0 -0 -0 -0 -0 -0 -0 -0 -0 -0 -0 -0 -0 -0 -0 -0 -0 -0 -0 -0 -0 -0 -0 -0 -0 -0 -0 -0 -0 -0 -0 -0 -0 -0
-0 -0 -0 -0 -0 -0 -0 -0 -0 -0 -0 -0 -0 -0 -0 -0 -0 -0 -0 -0 -0 -0 -0 -0 -0 -0 -0 -0 -0 -0 -0 -0 -0 -0 -0 -0 -0 -0 -0 -0 -0 -0 -0
-0 -0 -0 -0 -0 -0 -0 -0 -0 -0 -1 -0 -0 -1 -0 -0 -0 -0 -0 -0 -0 -0 -0 -0 -0 -0 -0 -0 -0 -0 -0 -0 -0 -0 -0 -0 -0 -0 -0 -0 -0 -0 -0
-0 -0 -0 -0 -0 -0 -0 -0 -0 -0 -0 -1 -0 -0 -0 -0 -0 -0 -0 -0 -0 -0 -0 -0 -0 -0 -0 -0 -0 -0 -0 -0 -0 -0 -0 -0 -0 -0 -0 -0 -0 -0 -0
-0 -0 -0 -0 -0 -0 -0 -0 -0 -0 -0 -1 -0 -0 -0 -0 -0 -0 -0 -0 -0 -0 -0 -0 -0 -0 -0 -0 -0 -0 -0 -0 -0 -0 -0 -0 -0 -0 -0 -0 -0 -0 -0
-0 -0 -0 -0 -0 -0 -0 -0 -0 -0 -0 -0 -0 -0 -0 -0 -0 -0 -0 -0 -0 -0 -0 -0 -0 -0 -0 -0 -0 -0 -0 -0 -0 -0 -0 -0 -0 -0 -0 -0 -0 -0 -0
Wind_Speed
5 5 6 7 7 7 8 9 10 10 10 11 11 11 12 12 11 10 11 13 10 8 9 11 10 9 7 6 6 6 7 6 8 7 5 7 11 5 3 3 4 4 3
6 6 8 8 8 9 10 10 10 11 10 11 11 12 12 12 12 11 12 12 10 11 10 11 12 8 8 7 5 7 6 8 6 8 7 4 6 3 2 4 2 3 4
7 7 9 10 9 10 10 11 11 11 11 11 12 12 12 12 13 12 11 12 12 11 11 11 11 10 8 7 6 6 6 6 6 5 6 4 3 2 2 3 3 5 4
7 8 9 10 10 11 12 12 12 11 12 12 12 13 13 13 13 13 12 12 13 12 12 11 11 11 10 8 7 7 7 5 5 5 5 5 4 2 3 1 2 3 3
7 9 10 11 11 11 12 12 12 12 13 13 13 13 13 12 10 12 12 12 12 12 12 13 11 14 19 16 8 7 6 5 5 5 4 4 3 2 2 1 3 2 3
8 10 10 11 12 12 13 13 14 14 13 13 13 13 14 11 21 23 19 12 12 12 11 11 10 17 16 19 20 19 14 7 6 5 3 4 3 2 2 2 3 2 2
8 10 11 11 13 13 14 15 15 15 14 14 14 14 14 13 24 24 23 11 11 10 10 10 8 8 13 10 13 18 16 18 17 9 7 5 4 2 3 1 1 4 2
9 10 11 12 14 15 15 15 15 13 14 14 14 14 14 12 25 25 24 12 11 11 10 11 11 10 10 10 9 10 9 8 8 7 7 7 4 3 1 3 1 3 6
9 11 12 13 15 15 16 16 15 14 14 14 14 15 14 14 25 25 20 10 10 10 9 10 11 11 15 19 11 10 7 8 10 16 15 12 11 13 7 4 2 7 2
10 12 12 13 14 15 16 16 13 14 16 13 15 15 19 16 22 25 19 8 9 7 8 11 19 15 19 20 11 10 11 10 8 7 6 9 9 6 7 6 5 5 3
11 12 13 13 14 14 15 14 14 14 14 15 15 14 14 15 15 23 22 10 8 7 7 7 7 17 17 19 19 10 12 10 12 7 6 4 4 4 4 4 5 5 3
11 12 13 13 12 12 15 14 15 14 13 13 14 13 10 11 18 19 22 20 17 9 8 6 9 18 18 20 16 16 17 17 6 6 5 5 4 4 3 4 5 4 1
11 13 13 14 13 13 14 14 12 12 10 11 11 12 11 10 9 20 21 20 18 10 6 11 19 19 20 17 21 20 18 7 7 7 6 6 4 5 5 3 4 6 6
12 13 13 13 15 12 10 11 11 10 11 11 11 12 12 11 10 9 8 9 15 12 14 11 13 16 18 14 13 11 7 6 6 7 7 5 4 4 4 4 3 5 4
11 12 12 11 11 12 10 11 11 11 13 13 12 11 12 11 12 21 18 10 9 11 14 8 8 8 7 7 7 8 6 5 7 7 6 5 5 5 3 4 5 5 4
11 11 11 10 10 10 10 11 18 21 26 27 27 20 12 22 26 26 23 22 21 19 9 8 8 8 7 7 7 8 6 8 5 7 7 7 6 6 5 5 5 6 8
11 12 10 12 10 11 11 12 14 16 24 24 25 27 27 26 28 23 22 20 18 13 6 6 6 7 6 6 7 7 7 8 9 8 6 8 6 6 9 6 6 6 7
11 19 11 10 10 10 10 11 10 12 14 15 21 24 25 27 24 22 21 15 7 6 4 4 3 3 4 5 3 6 7 8 8 8 8 7 7 7 7 7 7 7 9
10 9 10 9 9 12 9 10 10 11 12 13 13 18 21 24 22 20 19 7 7 6 5 4 3 3 4 5 5 6 7 7 9 9 8 8 8 8 7 7 8 13 14
10 19 15 9 9 10 10 10 10 11 11 12 12 13 12 14 11 10 9 8 7 6 5 5 3 3 4 5 5 6 6 8 9 9 9 9 9 8 8 9 9 10 8
7 8 18 8 8 9 9 10 10 10 11 11 12 13 28 12 10 10 9 8 8 7 6 5 4 3 2 3 4 5 6 6 9 9 9 9 9 9 8 8 9 9 11
6 8 8 8 9 9 11 10 10 11 12 12 12 12 26 10 9 9 9 8 8 7 6 5 4 3 1 2 3 4 5 6 8 9 9 10 9 10 10 10 10 10 11
7 8 8 8 8 14 11 10 11 11 12 12 12 11 11 10 10 10 10 9 8 7 6 5 4 4 3 3 3 3 5 6 7 9 10 10 10 10 10 11 12 12 11
6 8 8 8 8 10 10 11 11 16 15 12 12 11 11 11 10 11 10 10 10 8 6 6 5 5 4 4 4 4 5 6 6 8 13 12 11 14 11 11 11 14 13
6 7 7 8 9 9 11 11 11 12 12 12 11 11 11 10 10 10 10 10 10 10 10 8 7 7 7 7 7 8 12 18 10 11 9 12 14 15 13 11 14 13 15
6 7 7 7 8 9 9 10 11 11 12 12 11 11 10 10 10 10 10 10 10 10 12 10 12 15 11 7 8 13 19 20 16 20 12 12 12 12 12 15 18 13 15
Wind_Direction
300 305 308 313 306 298 292 292 294 296 296 296 296 299 302 301 300 297 293 288 273 279 286 284 277 277 273 277 275 278 283 276 274 288 301 311 318 317 13 47 9 29 18
314 317 315 305 298 297 296 292 293 294 294 294 296 296 297 296 296 295 293 291 284 280 282 282 282 271 269 276 273 275 272 282 294 292 294 307 308 330 357 44 18 38 38
323 313 310 305 300 294 294 294 295 292 293 295 294 292 293 293 292 290 286 285 282 273 270 270 273 274 270 270 263 266 271 277 283 282 293 313 303 330 340 36 18 26 35
312 310 306 302 300 296 296 296 295 297 297 296 293 292 291 291 289 288 284 277 273 270 265 261 264 265 263 259 259 257 261 259 263 263 270 281 279 277 278 96 61 22 16
305 311 305 303 300 299 301 301 301 301 298 295 295 293 291 288 286 286 279 274 265 266 259 255 255 257 260 258 251 240 240 244 242 239 241 266 268 266 226 260 94 68 16
309 302 306 307 306 307 306 307 305 302 302 299 297 294 293 289 292 296 294 282 274 272 274 270 249 260 268 273 272 267 247 242 255 261 221 251 255 310 275 205 124 124 79
307 308 309 309 312 312 310 309 306 307 305 300 297 293 291 290 294 295 293 286 280 278 271 268 274 259 254 250 264 273 269 259 249 250 252 233 254 239 335 176 222 137 127
311 310 311 317 314 312 311 309 309 306 302 299 298 295 290 291 297 302 297 289 279 271 265 263 262 264 258 259 256 257 259 253 255 260 258 234 219 236 269 328 73 68 85
317 314 316 317 312 312 312 311 306 302 302 300 296 297 295 295 297 299 303 291 277 270 265 259 260 251 248 257 249 256 241 247 245 253 254 247 242 250 223 116 176 132 71
317 313 313 310 310 309 308 304 302 301 298 301 300 298 295 298 296 299 298 280 274 266 257 250 257 250 247 250 241 236 244 242 225 230 248 260 250 255 250 190 162 165 130
307 308 310 310 311 304 301 302 301 300 302 300 298 298 293 287 287 294 296 288 277 272 264 262 255 258 266 263 252 221 224 232 232 216 211 208 205 203 216 189 179 184 163
309 312 313 314 311 306 303 303 306 306 305 305 302 300 295 291 288 291 294 292 288 282 272 255 248 253 260 262 264 256 242 223 201 211 204 208 187 191 203 208 189 214 111
317 313 314 313 309 305 312 311 312 313 310 308 308 304 303 302 296 297 297 297 294 284 273 267 269 266 261 255 257 253 251 237 196 200 207 209 181 187 174 116 86 89 71
313 316 317 314 313 318 316 311 310 311 313 308 308 310 306 302 299 295 280 274 274 273 266 266 259 261 253 245 245 251 244 203 196 202 202 187 151 141 162 146 134 149 106
316 315 316 309 315 319 313 312 312 308 310 316 311 306 307 303 299 298 297 288 273 261 268 253 248 247 236 224 226 233 208 205 198 191 190 163 166 159 151 160 144 152 132
318 322 312 321 322 318 319 314 313 321 323 322 320 319 313 308 312 313 310 304 299 290 270 248 238 239 228 215 213 210 211 193 200 183 185 174 166 165 157 161 158 165 142
316 312 318 328 319 326 324 319 322 324 325 324 326 326 323 322 321 331 328 322 315 310 277 260 240 231 222 214 201 194 201 194 186 196 168 162 162 162 156 159 150 137 135
316 324 327 321 323 322 322 317 315 321 323 326 327 327 327 326 339 337 336 335 318 310 284 270 249 208 201 215 216 188 187 189 190 188 169 161 159 157 153 155 154 143 137
326 328 325 326 325 324 319 314 315 318 321 316 319 324 330 335 342 341 339 325 320 314 302 279 247 221 214 205 200 197 196 198 185 178 169 160 156 153 155 151 150 149 141
333 335 340 334 320 323 322 318 327 327 322 320 319 322 326 344 339 339 334 329 326 320 317 304 282 244 215 200 188 190 200 190 173 172 165 155 152 151 149 143 143 138 135
331 327 336 330 327 325 317 329 327 324 324 320 325 330 345 346 333 337 334 333 331 328 324 318 309 288 213 185 175 185 191 183 169 162 157 151 147 144 142 138 131 125 122
338 329 325 329 325 324 338 329 329 331 325 330 332 334 346 345 340 340 338 336 334 329 325 326 329 333 346 147 149 138 148 149 149 147 145 143 141 138 135 133 128 130 131
342 329 330 333 330 339 336 336 337 335 334 335 337 338 343 344 343 344 344 341 342 338 338 351 354 355 3 45 72 115 128 134 138 138 137 138 139 136 137 136 137 134 136
344 326 330 332 334 347 338 342 338 339 337 337 341 343 342 343 345 346 346 348 349 349 355 8 10 19 22 44 66 85 104 106 113 130 133 133 133 135 132 131 133 134 133
343 331 333 331 338 339 338 341 339 338 335 337 343 342 344 343 349 350 351 353 354 1 4 17 28 29 44 66 86 101 119 117 115 120 121 125 128 130 131 128 133 132 130
341 334 331 330 344 339 343 341 338 338 335 336 342 342 344 345 350 352 355 1 1 6 10 17 24 30 35 57 87 116 121 121 120 118 117 122 123 124 126 128 129 124 126